Location: Bartodzieje
(51.1167°N, 19.4667°E)
Time: 15:15:37
(UTC+00:00)

Daily predictions for brighter satellites

Satellite Brightness Start Highest point End
(mag) Time Altitude Azimuth Time Altitude Azimuth Time Altitude Azimuth
Cosmos 1459 Rocket 4.4 18:42:16 10° SSE 18:48:10 46° E 18:54:00 10° NNE
ATLAS 2AS CENTAUR R/B 2.7 18:44:11 10° SW 18:51:08 79° SE 18:57:59 10° NE
SL-24 R/B 4.1 18:46:57 10° NNE 18:51:12 72° ESE 18:55:34 10° S
Cosmos 2100 Rocket 4.2 18:45:28 10° SSE 18:51:28 53° E 18:57:34 10° NNE
Cosmos 44 Rocket 4.4 18:48:04 10° SSE 18:52:06 24° ESE 18:56:14 10° ENE
Cosmos 1743 3.6 18:51:11 10° NNE 18:53:38 22° ENE 18:56:03 10° SE
BREEZE-M DEB (TANK) 3.4 18:50:30 10° SW 18:54:20 22° SSE 18:56:26 10° ESE
Ariane Rocket 4.3 18:53:08 10° ESE 18:57:13 25° ENE 19:01:19 10° N
ISS -1.8 18:56:50 10° SSE 18:58:16 12° SE 18:59:43 10° ESE
ADEOS 3.6 18:53:54 10° SSE 18:59:07 85° ENE 19:04:23 10° NNW
Cosmos 2322 Rocket 4.4 18:57:03 10° N 19:00:26 16° NNE 19:03:50 10° ENE
Spot 2 Rocket 3.6 18:57:57 10° SSE 19:02:53 61° ENE 19:07:51 10° N
Cosmos 2082 Rocket 3.5 19:00:48 10° SE 19:04:46 20° E 19:08:44 10° NE
Cosmos 2151 Rocket 3.6 19:02:51 10° S 19:07:13 88° E 19:11:37 10° N
SL-4 R/B 2.9 19:04:14 10° W 19:07:43 34° SSW 19:11:16 10° SE
Okean 2 Rocket 3.1 19:05:11 10° S 19:09:38 72° E 19:14:08 10° NNE
BREEZE-M DEB (TANK) 4.4 19:07:59 10° WSW 19:12:57 81° SSE 19:35:22 10° ENE
Cosmos 1536 Rocket 4.0 19:10:09 10° NNW 19:14:27 62° W 19:18:45 10° S
Cosmos 1371 Rocket 4.4 19:09:23 10° SSW 19:14:39 74° WNW 19:20:02 10° NNE
IRS-1A Rocket 4.5 19:09:45 10° SSE 19:15:33 85° WSW 19:21:30 10° NNW
Timation 1 Rocket 4.5 19:11:33 10° S 19:17:22 54° ESE 19:23:12 10° NE
Cosmos 292 Rocket 4.0 19:13:17 10° NNW 19:18:03 69° WSW 19:22:45 10° SSE
Tsikada Rocket 4.4 19:12:27 10° N 19:18:24 46° ENE 19:24:01 11° SE
CZ-4C R/B 2.1 19:18:41 10° SSW 19:22:37 41° ESE 19:27:33 10° NE
Cosmos 2228 3.9 19:19:24 11° SSE 19:22:49 29° E 19:26:22 10° NNE
Cosmos 1697 Rocket 3.3 19:18:28 10° NW 19:23:57 55° WSW 19:29:23 10° S
Cosmos 1725 Rocket 4.1 19:18:00 10° S 19:24:07 58° E 19:30:14 10° NNE
Okean O Rocket 1.5 19:20:36 10° SSE 19:24:53 87° E 19:29:13 10° NNW
USA 305 2.9 19:21:18 10° WNW 19:25:24 65° NNE 19:29:06 10° E
ATLAS 3B R/B 3.2 19:18:45 10° NW 19:26:30 67° SW 19:33:32 11° SSE
ERS-1 Rocket 4.0 19:22:15 10° S 19:27:02 45° W 19:31:52 10° NNW
Cosmos 1741 Rocket 4.1 19:22:19 10° NNW 19:27:41 88° WSW 19:32:45 11° SSE
SL-16 R/B 3.6 19:23:01 10° NNW 19:27:53 28° NE 19:32:43 10° E
Cosmos 1452 Rocket 3.7 19:23:46 10° S 19:28:46 49° ESE 19:33:49 10° NNE
Helios 1A Rocket 3.6 19:25:54 10° N 19:28:55 43° WNW 19:31:56 10° SW
USA 186 1.2 19:28:18 13° SSE 19:30:35 87° W 19:33:19 10° NNW
Cosmos 1867 4.0 19:25:49 10° SW 19:31:14 69° NW 19:36:42 10° NE
Okean-O 2.8 19:33:21 10° S 19:37:43 74° WSW 19:42:07 10° NNW
Cosmos 1331 Rocket 3.9 19:32:51 10° SSW 19:38:05 79° ESE 19:43:20 10° NNE
Cosmos 968 Rocket 4.3 19:33:28 10° NW 19:38:29 47° WSW 19:43:28 10° S
Cosmos 2333 Rocket 3.5 19:35:40 10° NNW 19:40:39 30° NE 19:45:38 10° ESE
Cosmos 1892 Rocket 3.5 19:38:08 10° N 19:42:30 87° W 19:46:26 12° S
CZ-4B R/B 3.6 19:39:17 15° SE 19:43:03 58° ENE 19:47:46 10° N
Cosmos 2016 Rocket 4.0 19:36:59 10° S 19:43:14 72° E 19:49:25 10° NNE
Cosmos 2173 Rocket 4.3 19:39:32 10° SSW 19:45:38 71° WNW 19:51:52 10° N
Cosmos 1302 Rocket 4.4 19:41:45 10° S 19:46:36 43° ESE 19:51:29 10° NE
USA 245 4.4 19:42:23 13° SSE 19:47:42 81° ENE 19:53:33 10° NNW
Cosmos 1455 Rocket 3.0 19:43:53 10° S 19:48:17 81° E 19:52:42 10° NNE
SL-08 R/B 3.8 19:45:53 10° N 19:50:43 65° WNW 19:55:27 10° SSW
Cosmos 2061 Rocket 4.2 19:44:57 11° SSE 19:50:43 54° E 19:56:49 10° NNE
Cosmos 1980 Rocket 2.4 19:46:27 10° NNW 19:52:09 71° WSW 19:56:48 16° SSE
Okean 1 Rocket 4.1 19:50:12 10° SSW 19:54:26 48° WNW 19:58:44 10° N
Cosmos 724 4.4 19:48:37 10° SSW 19:54:28 55° ESE 20:00:15 10° NE
SPOT 3 Rocket 3.5 19:53:56 16° SSE 19:58:11 89° ENE 20:03:21 10° NNW
CZ-4 R/B 4.2 19:59:12 10° W 19:59:56 10° W 20:00:41 10° WNW
CZ-4B R/B 2.4 19:58:30 21° SSE 20:00:37 85° WSW 20:04:01 10° NNW
Cosmos 1544 Rocket 4.4 19:58:36 21° SE 20:00:45 32° E 20:04:38 10° NNE
Cosmos 1782 2.4 19:59:06 13° S 20:02:08 88° ESE 20:05:42 10° N
Cosmos 1933 4.3 20:09:27 23° ESE 20:10:31 27° E 20:13:47 10° NNE
Cosmos 1802 Rocket 4.4 20:06:00 10° SSW 20:12:09 65° WNW 20:18:17 10° N
Cosmos 2084 Rocket 3.3 20:07:57 10° NW 20:12:10 86° NE 20:14:32 26° SE
Cosmos 1833 Rocket 4.1 20:07:08 10° WSW 20:12:24 41° NW 20:17:43 10° NNE
Terra 4.1 20:10:35 10° SW 20:13:58 20° W 20:17:24 10° NW
Cosmos 1758 Rocket 3.7 20:09:57 10° N 20:14:18 63° ENE 20:16:41 26° SSE
IRS-1C Rocket 4.1 20:10:56 19° SSE 20:14:49 84° WSW 20:20:08 10° NNW
Gbstr 26 Del rocket 3.7 20:12:21 10° WNW 20:16:59 41° SSW 20:18:53 26° SSE
Cosmos 2360 Rocket 3.4 20:13:07 10° NNW 20:18:14 33° NE 20:22:30 14° ESE
NOSS 3-3 (C) 4.2 20:15:34 19° S 20:18:47 36° ESE 20:24:18 10° NE
Helios 1B rocket 3.9 20:17:54 15° E 20:19:14 19° ENE 20:21:46 10° NNE
CZ-2C R/B 2.0 20:23:39 40° S 20:24:28 71° WSW 20:27:16 10° NNW
Cosmos 1743 4.3 20:24:03 10° NW 20:26:25 21° W 20:28:34 11° SW
Cosmos 2237 4.3 20:21:58 10° NNW 20:27:44 79° WSW 20:31:12 25° SSE
Geosat 4.2 20:24:42 10° NE 20:29:32 47° ESE 20:32:21 23° S
NOSS 3-4 (A) 4.2 20:25:57 10° NW 20:32:14 55° NE 20:38:37 14° ESE
NOSS 3-4 (C) 4.2 20:26:32 10° NW 20:32:51 55° NE 20:39:16 14° ESE
Cosmos 44 Rocket 3.7 20:28:00 10° SW 20:33:05 71° NW 20:38:18 10° NE
ISS -3.6 20:31:14 10° SW 20:34:28 48° SSE 20:35:05 41° ESE
Ariane Rocket 3.4 20:32:21 20° S 20:35:45 58° W 20:40:46 10° NNW
Cosmos 2219 Rocket 3.6 20:30:49 10° NNW 20:35:45 30° NE 20:40:07 12° E
Cosmos 1602 Rocket 3.6 20:35:42 10° N 20:39:59 66° ENE 20:41:43 34° SSE
ATLAS 2AS CENTAUR R/B 4.1 20:36:11 10° W 20:42:38 40° NNW 20:49:00 10° NE
Cosmos 2369 4.1 20:37:34 10° NW 20:43:09 55° WSW 20:46:24 25° S
Cosmos 2322 Rocket 2.8 20:40:25 10° NNW 20:45:55 49° NE 20:49:17 23° ESE
Cosmos 2082 Rocket 2.3 20:42:24 10° SSW 20:48:08 83° WNW 20:53:54 10° NNE
Cosmos 1437 Rocket 2.4 20:47:59 48° SSE 20:48:48 67° E 20:52:21 10° NNE
USA 305 2.7 20:46:52 10° WNW 20:50:44 46° SW 20:51:08 44° SSW
Cosmos 909 Rocket 3.9 20:44:46 10° SSW 20:51:05 77° SE 20:57:36 10° NE
Cosmos 1891 Rocket 4.4 20:46:58 22° S 20:51:06 82° E 20:57:11 10° NNE
Cosmos 2151 3.0 20:47:06 10° NNW 20:51:14 70° W 20:52:53 34° S
USA 234 3.8 20:47:23 10° ENE 20:53:13 33° SE 20:55:31 27° SSE
Meteor 1-5 Rocket 4.3 20:49:35 10° N 20:55:13 68° ENE 20:58:02 31° SSE
Cosmos 1626 Rocket 4.3 20:53:44 10° NNW 20:57:53 45° W 21:00:05 25° SSW
Cosmos 1607 4.0 20:53:24 10° SW 20:59:34 80° NW 21:05:54 10° NE
Okean O Rocket 4.2 20:59:56 10° WSW 21:01:42 12° W 21:03:28 10° WNW
Cosmos 2278 3.7 20:59:20 10° NNW 21:05:05 82° ENE 21:07:47 33° SE
Cosmos 1503 Rocket 4.4 21:01:20 10° NNW 21:06:27 52° ENE 21:08:48 29° ESE
Cosmos 1777 Rocket 4.2 21:01:38 10° NNW 21:06:53 65° ENE 21:09:08 34° SE
Okean 1-7 Rocket 3.5 21:03:57 10° N 21:08:25 79° E 21:09:50 43° SSE
Cosmos 1992 Rocket 4.1 21:05:58 16° SSW 21:10:09 73° WNW 21:15:23 10° NNE
IKONOS-2 4.3 21:06:34 10° NNE 21:10:42 72° ESE 21:11:49 46° S
CZ-4C R/B 3.1 21:06:23 10° WSW 21:10:44 44° NNW 21:16:23 10° NE
COSMOS 2406 3.1 21:07:29 23° SSW 21:11:12 77° ESE 21:16:57 10° NNE
Cosmos-2242 4.3 21:11:13 24° E 21:11:34 24° E 21:14:55 10° NE
Helios 1A 2.7 21:08:17 10° NNE 21:12:13 70° ESE 21:13:02 52° SSE
SL-16 R/B 2.2 21:06:50 10° NNW 21:12:31 74° WSW 21:14:58 35° SSE
Nadezhda 4 Rocket 3.9 21:09:12 10° N 21:15:21 89° E 21:18:18 33° S
Cosmos 1606 Rocket 3.5 21:15:48 47° SSE 21:16:53 65° E 21:21:12 10° NNE
Cosmos 1805 2.8 21:14:33 10° NNW 21:17:48 66° W 21:18:02 63° SW
Cosmos 1486 Rocket 3.9 21:13:18 10° NNW 21:18:35 88° ENE 21:20:37 39° SSE
USA 290 4.3 21:24:21 18° ENE 21:24:21 18° ENE 21:25:37 10° NE
Cosmos 2333 Rocket 2.3 21:19:45 10° NW 21:25:25 67° WSW 21:27:39 37° S
CSL-04 DEB 3.9 21:26:07 70° SSE 21:26:30 87° ENE 21:30:07 10° NNW
Cosmos 2098 Rocket 3.4 21:25:32 33° SSW 21:27:48 77° W 21:32:25 10° N
SeaSat 1 4.1 21:24:17 12° E 21:27:59 28° NE 21:32:06 10° NNW
Cosmos 1766 3.8 21:25:38 10° N 21:28:33 34° ENE 21:28:33 34° ENE
Cosmos 1726 Rocket 3.4 21:29:27 55° SE 21:30:03 64° E 21:34:04 10° NNE
Cosmos 2195 Rocket 4.4 21:27:10 10° N 21:33:28 85° E 21:36:10 37° SSE
Cosmos 1076 Rocket 3.4 21:29:51 10° N 21:34:09 87° E 21:35:03 56° SSE
Cosmos 1980 Rocket 4.5 21:32:38 10° WNW 21:35:05 13° W 21:37:31 10° WSW
CZ-2C R/B 4.1 21:34:56 17° ESE 21:37:49 28° ENE 21:42:12 10° N
Cosmos 2026 Rocket 4.0 21:33:35 10° N 21:40:00 81° E 21:42:46 37° SSE
NOSS 3-3 (A) 4.1 21:35:58 10° SW 21:41:17 68° NW 21:47:46 10° NE
Spot 4 3.8 21:44:25 47° SSE 21:45:46 77° ENE 21:50:33 10° NNW
DNEPR-1 R/B 4.3 21:41:37 10° NW 21:46:59 68° SW 21:49:21 39° SSE
Aureole 1 Rocket 4.2 21:43:52 10° NNW 21:48:56 54° ENE 21:51:56 29° SE
Okean 1 3.1 21:49:59 64° WSW 21:50:15 68° WNW 21:53:50 10° N
Helios 1B rocket 2.8 21:51:51 40° WSW 21:51:58 40° W 21:55:19 10° NNW
SAR-Lupe-2 3.7 21:53:25 56° ENE 21:53:25 56° ENE 21:56:38 10° N
Cosmos 1975 4.2 21:50:26 10° NNE 21:53:30 24° ENE 21:54:01 23° E
Cosmos 2333 4.2 21:49:54 10° NNW 21:55:37 77° WSW 21:57:35 43° SSE
Cosmos 44 4.2 21:51:13 10° NW 21:56:31 51° NE 21:59:52 21° ESE
Cosmos 1464 Rocket 4.4 21:53:23 25° SW 21:56:56 56° WNW 22:03:01 10° N
Cosmos 2360 Rocket 2.4 21:56:58 10° NW 22:02:33 59° WSW 22:04:14 42° S
Cosmos 1271 Rocket 4.0 22:04:45 25° ENE 22:04:45 25° ENE 22:07:09 10° NE
Meteor 1-26 Rocket 4.1 22:03:06 44° S 22:04:54 83° E 22:10:33 10° NNE
RESURS DK-1 4.1 22:03:32 10° NNW 22:06:56 26° NE 22:09:02 17° E
ALOS 2 2.5 22:06:32 59° S 22:07:19 81° WSW 22:11:44 10° NNW
ARIANE 5 R/B 2.7 22:07:11 54° SSW 22:07:58 67° WSW 22:12:26 10° NNW
NOSS 3-3 (C) 4.4 22:03:58 10° WSW 22:09:20 58° NW 22:15:53 10° NE
Cosmos 1953 Rocket 3.9 22:05:47 10° NNW 22:10:02 52° W 22:10:47 46° SW
ISS -1.2 22:07:51 10° W 22:08:15 13° W 22:08:15 13° W
GP-B 4.1 22:07:20 10° NNE 22:11:18 32° E 22:12:04 30° ESE
Cosmos 2058 Rocket 2.9 22:11:46 63° S 22:12:25 84° E 22:16:48 10° NNE
BREEZE-M R/B 4.0 22:11:05 10° W 22:18:18 76° SSW 22:24:13 10° ESE
Cosmos 1092 Rocket 4.1 22:12:25 10° NNW 22:18:31 66° W 22:20:51 39° SSW
CZ-2C R/B 3.8 22:14:32 10° N 22:18:56 65° WNW 22:20:05 46° SW
Helios 1B 4.4 22:15:01 10° NNE 22:19:17 76° ESE 22:19:49 65° SSE
Cosmos 2219 Rocket 2.2 22:14:32 10° NW 22:20:10 68° WSW 22:21:47 46° S
NOSS 3-4 (A) 4.1 22:16:46 10° NW 22:23:16 52° SW 22:26:00 36° S
NOSS 3-4 (C) 4.1 22:17:22 10° NW 22:23:54 53° SW 22:26:40 36° S
Cosmos 540 Rocket 3.3 22:23:21 48° SSW 22:24:49 88° ESE 22:30:01 10° NNE
PSLV R/B 3.4 22:20:54 10° NNE 22:25:08 86° ESE 22:25:44 65° S
Meteor 1-14 Rocket 4.2 22:19:57 10° N 22:25:34 72° ENE 22:27:27 42° SSE
Cosmos 1898 Rocket 3.9 22:21:02 10° NNW 22:26:09 57° ENE 22:28:15 33° SE
Cosmos 1461 3.2 22:26:32 42° W 22:27:24 52° NW 22:31:01 10° NE
Cosmos 2322 Rocket 3.0 22:24:42 10° NW 22:29:49 36° WSW 22:31:03 32° SW
MetOp-A 3.8 22:29:01 51° SSE 22:30:21 89° ENE 22:35:15 10° NNW
Cosmos 2082 Rocket 4.4 22:28:37 10° W 22:33:05 23° NW 22:37:34 10° NNE
SL-08 ROCKET BODY 4.4 22:30:02 10° NNW 22:36:11 79° W 22:38:25 42° S
USA 234 3.2 22:30:12 10° ENE 22:36:47 86° SSE 22:42:48 13° WSW
Cosmos 1707 3.6 22:38:21 29° NW 22:38:21 29° NW 22:40:24 10° N
Cosmos 1536 3.3 22:34:43 10° NNW 22:38:06 41° W 22:38:06 41° W
Meteor 2-9 Rocket 4.0 22:34:27 10° NNW 22:39:50 86° ENE 22:41:29 47° SSE
ACS3 Solar Sail 3.0 22:36:32 10° NNE 22:41:39 28° E 22:44:07 21° SE
COSMOS 2428 2.9 22:38:07 10° NNW 22:43:51 71° ENE 22:46:33 32° SE
Cosmos 2237 Rocket 3.4 22:41:56 10° NNW 22:47:17 39° NE 22:52:25 11° ESE
Cosmos 1763 Rocket 3.9 22:45:39 33° SW 22:47:52 59° WNW 22:53:07 10° NNE
TSX-5 3.7 22:44:51 10° NNW 22:47:24 56° NNW 22:47:24 56° NNW
Cosmos-2242 3.9 22:47:28 32° WSW 22:48:23 36° WNW 22:52:14 10° N
CZ-2C R/B 3.2 22:44:18 10° NNE 22:49:59 82° ESE 22:51:56 44° S
ARGOS Delta rocket 4.5 22:49:28 10° N 22:54:18 53° WNW 22:56:07 35° SW
SL-16 R/B 4.2 22:52:57 10° WNW 22:55:36 14° W 22:56:47 13° WSW
USA 290 3.9 22:56:48 26° WNW 22:57:05 26° NW 22:59:49 10° N
CZ-4C R/B 4.1 22:55:03 10° NNE 22:57:47 33° E 22:57:47 33° E
Cosmos 1634 Rocket 4.5 22:57:50 30° SW 23:00:37 50° WNW 23:06:40 10° N
Cosmos 1238 Rocket 4.0 23:01:17 28° E 23:01:38 28° E 23:05:04 10° NNE
Cosmos 2227 Rocket 4.4 23:00:12 10° ESE 23:02:19 12° E 23:04:25 10° ENE
Cosmos 1766 Rocket 4.4 22:58:17 10° N 23:02:24 41° ENE 23:03:43 32° ESE
Cosmos 2279 Rocket 4.2 23:01:48 36° SW 23:04:23 65° WNW 23:10:38 10° N
Cosmos 1470 3.5 23:01:39 10° NNW 23:04:12 35° WNW 23:04:12 35° WNW
SeaSat 1 2.4 23:03:53 50° S 23:05:01 69° WSW 23:09:56 10° NW
Cosmos 2333 Rocket 4.3 23:06:31 10° WNW 23:08:37 12° W 23:09:39 12° WSW
Intercosmos 24 3.9 23:04:04 10° N 23:08:37 72° ENE 23:09:12 59° SE
Cosmos 2221 2.4 23:09:57 59° SW 23:10:30 67° WNW 23:14:41 10° N
Cosmos 1842 4.2 23:13:51 29° WNW 23:13:51 29° WNW 23:16:28 10° N
Cosmos 841 Rocket 3.5 23:12:28 47° S 23:13:50 68° ESE 23:19:03 10° NNE
CZ-2C R/B 2.8 23:16:22 43° SSW 23:17:46 56° W 23:22:56 10° NNW
Alouette 2 Rocket 3.9 23:15:14 10° N 23:18:44 51° ENE 23:19:47 38° ESE
Meteor 1-19 Rocket 4.3 23:17:12 41° SSW 23:19:16 77° WNW 23:25:11 10° N
BREEZE-M DEB (TANK) 3.5 23:13:45 10° W 23:19:41 54° SSW 23:25:03 10° ESE
NOSS 0 Rocket 3.8 23:18:53 10° NNW 23:25:06 80° WSW 23:28:04 33° SSE
Cosmos 1975 3.8 23:25:14 10° NNW 23:28:17 29° W 23:28:17 29° W
DELTA 2 DEB (DPAF) 3.5 23:25:08 10° NNE 23:28:42 68° ESE 23:28:50 66° ESE
Cosmos 1655 Rocket 4.1 23:23:25 10° N 23:29:40 76° E 23:32:52 31° SSE
Cosmos 2266 Rocket 4.1 23:26:22 10° NNW 23:32:17 57° W 23:34:28 37° SSW
Cosmos 2322 4.0 23:28:18 10° NW 23:33:48 50° WSW 23:35:16 40° SSW
Cosmos 1812 Rocket 3.9 23:34:01 43° WSW 23:34:58 52° WNW 23:39:19 10° N
Cosmos 2297 Rocket 2.7 23:33:58 34° SSE 23:35:53 47° ESE 23:41:17 10° NE
Cosmos 44 4.0 23:32:36 10° NW 23:37:36 39° WSW 23:38:08 38° SW
Cosmos 858 Rocket 4.4 23:32:32 10° NNW 23:37:44 76° WSW 23:39:32 41° S
Cosmos 1271 Rocket 4.1 23:38:07 23° WNW 23:38:25 24° WNW 23:41:15 10° NNW
Meteor 2-20 Rocket 4.2 23:40:52 38° S 23:43:16 86° E 23:49:02 10° NNE
RESURS DK-1 2.7 23:40:40 10° NW 23:44:13 43° WSW 23:44:13 43° WSW
Cosmos 1937 Rocket 3.8 23:39:35 10° NNW 23:44:33 49° WSW 23:45:41 41° SW
Cosmos 2360 Rocket 4.4 23:44:35 10° W 23:45:19 10° W 23:45:57 10° W
Lacrosse 4 Rocket 3.0 23:46:25 20° ESE 23:47:00 21° ESE 23:50:03 10° ENE
Meteor 1-11 Rocket 4.3 23:42:22 10° NNW 23:47:46 44° W 23:49:32 34° SW
ISS -1.3 23:50:53 14° ESE 23:50:53 14° ESE 23:51:24 10° ESE
GP-B 4.2 23:44:26 10° NNW 23:48:16 30° WNW 23:49:14 27° WSW
NOSS 8 (H) 4.2 23:47:18 10° NW 23:49:51 67° NNW 23:49:51 67° NNW
Cosmos 1066 Rocket 4.4 23:49:22 32° SSE 23:51:42 60° E 23:57:04 10° NNE
NOSS 8 (E) 4.4 23:53:31 10° NW 23:56:26 64° NE 23:57:11 44° ESE
